USA 99 (MILSTAR-1 1)

Last updated on Fri Dec 19 2025 00:02:48 GMT+0000 (Coordinated Universal Time)

1 22988U 94009A 25352.60742828 -.00000189 00000+0 00000+0 0 9992 2 22988 17.3483 29.6528 0003522 262.9329 283.5644 1.00271923 31140
UTC large
Height (km)
Speed (km/s)
/
Latitude / Longitude
Inclination (degrees)
Orbital Period (minutes)
Azimuth
Elevation
Range (km)
Doppler Factor

Next 0 passes for location: London (51.5072 / 0.1276)

Sorry there are no passes over London.